Weather History for Oxford, MS

Change the Weather History Date:

Monday, March 3, 2014

  Actual Average Record
Temperature  
Mean Temperature 24 °F -  
Max Temperature 32 °F 62 °F 78 °F (1953)
Min Temperature 15 °F 38 °F 7 °F (1980)
Degree Days  
Heating Degree Days 42    
Moisture  
Dew Point 18 °F    
Average Humidity 86    
Maximum Humidity 100    
Minimum Humidity 74    
Precipitation  
Precipitation 0.27 in - - ()
Sea Level Pressure  
Sea Level Pressure 30.26 in    
Wind  
Wind Speed 3 mph (North)    
Max Wind Speed 12 mph    
Max Gust Speed 16 mph    
Visibility 7 miles    
Events Rain , Snow    
Averages and records for this station are not official NWS values.
T = Trace of Precipitation, MM = Missing Value Source: NWS Daily Summary

Daily Weather History Graph

Daily Weather History Graph

Search for Another Location

Airport:

Trip Planner

Search our weather history database for the weather conditions in past years. The results will help you decide how hot, cold, wet, or windy it might be!

Date:

Astronomy

Mar. 03, 2014 Rise Set
Actual Time 6:24 AM CST 5:56 PM CST
Civil Twilight 5:59 AM CST 6:21 PM CST
Nautical Twilight 5:30 AM CST 6:50 PM CST
Astronomical Twilight 5:01 AM CST 7:19 PM CST
Moon 7:40 AM CST (3/3) 8:49 PM CST (3/3)
Length of Visible Light 12h 21m
Length of Day
11h 31m
Waxing Crescent, 8% of the Moon is Illuminated
Mar 3
Waxing Crescent
Mar 8
First Quarter
Mar 16
Full
Mar 23
Last Quarter
Mar 30
New

Hourly Weather History & Observations

Time (CST) Temp. Windchill Dew Point Humidity Pressure Visibility Wind Dir Wind Speed Gust Speed Precip Events Conditions
12:15 AM 32.0 °F 24.8 °F 32.0 °F 100% 29.98 in 2.5 mi NNE 8.1 mph 16.1 mph 0.08 in Rain Rain
12:35 AM 32.0 °F 25.6 °F 32.0 °F 100% 29.99 in 5.0 mi North 6.9 mph - 0.12 in Rain Light Rain
12:55 AM 32.0 °F 25.6 °F 32.0 °F 100% 29.99 in 7.0 mi ENE 6.9 mph - 0.13 in Rain Light Rain
1:15 AM 32.0 °F 24.8 °F 32.0 °F 100% 29.99 in 7.0 mi North 8.1 mph - N/A Rain Light Rain
1:35 AM 32.0 °F 24.2 °F 32.0 °F 100% 30.01 in 10.0 mi North 9.2 mph - N/A   Overcast
1:55 AM 32.0 °F 23.6 °F 32.0 °F 100% 30.00 in 9.0 mi North 10.4 mph 16.1 mph N/A   Overcast
2:15 AM 32.0 °F 25.6 °F 30.2 °F 93% 30.00 in 10.0 mi North 6.9 mph - N/A   Overcast
2:35 AM 32.0 °F 24.8 °F 32.0 °F 100% 30.02 in 2.0 mi North 8.1 mph - N/A Rain Light Rain
2:55 AM 32.0 °F 23.0 °F 32.0 °F 100% 30.02 in 1.5 mi North 11.5 mph - N/A Rain Light Rain
3:15 AM 28.4 °F - 28.4 °F 100% 30.03 in 1.2 mi Calm Calm - N/A Rain Light Freezing Rain
3:35 AM 28.4 °F - 26.6 °F 93% 30.05 in 2.0 mi Calm Calm - N/A Rain Light Freezing Rain
3:55 AM 26.6 °F - 24.8 °F 93% 30.07 in 2.0 mi Calm Calm - N/A Rain Light Freezing Rain
4:15 AM 24.8 °F - 23.0 °F 93% 30.10 in 2.0 mi Calm Calm - N/A Rain Light Freezing Rain
4:35 AM 23.0 °F - 23.0 °F 100% 30.14 in 1.8 mi Calm Calm - N/A Rain Light Freezing Rain
4:55 AM 21.2 °F - 19.4 °F 93% 30.15 in 2.0 mi Calm Calm - N/A Rain Light Freezing Rain
5:15 AM 19.4 °F - 19.4 °F 100% 30.17 in 2.0 mi Calm Calm - N/A Rain Light Freezing Rain
5:35 AM 19.4 °F - 17.6 °F 93% 30.18 in 2.5 mi Calm Calm - N/A Rain Light Freezing Rain
5:55 AM 19.4 °F - 17.6 °F 93% 30.20 in 5.0 mi Calm Calm - N/A Rain Light Freezing Rain
6:15 AM 17.6 °F - 15.8 °F 93% 30.22 in 5.0 mi Calm Calm - N/A Rain Light Freezing Rain
6:35 AM 17.6 °F - 14.0 °F 86% 30.23 in 4.0 mi Calm Calm - N/A Snow Light Snow
6:55 AM 17.6 °F - 14.0 °F 86% 30.25 in 3.0 mi Calm Calm - 0.01 in Snow Light Snow
7:15 AM 15.8 °F - 14.0 °F 93% 30.25 in 3.0 mi Calm Calm - N/A Snow Light Snow
7:35 AM 15.8 °F - 14.0 °F 93% 30.26 in 2.0 mi Calm Calm - 0.03 in Snow Light Snow
7:55 AM 15.8 °F - 14.0 °F 93% 30.27 in 3.0 mi Calm Calm - 0.06 in Snow Light Snow
8:15 AM 17.6 °F - 14.0 °F 86% 30.29 in 4.0 mi Calm Calm - N/A Snow Light Snow
8:35 AM 17.6 °F - 14.0 °F 86% 30.30 in 4.0 mi Calm Calm - 0.01 in Snow Light Snow
8:55 AM 17.6 °F - 14.0 °F 86% 30.30 in 3.0 mi Calm Calm - 0.02 in Snow Light Snow
9:15 AM 17.6 °F - 14.0 °F 86% 30.31 in 3.0 mi Calm Calm - 0.01 in Snow Light Snow
9:35 AM 17.6 °F - 14.0 °F 86% 30.32 in 5.0 mi Calm Calm - 0.02 in Snow Light Snow
9:55 AM 17.6 °F - 14.0 °F 86% 30.31 in 4.0 mi Calm Calm - 0.03 in Snow Light Snow
10:15 AM 19.4 °F - 14.0 °F 80% 30.33 in 5.0 mi Calm Calm - N/A Snow Light Snow
10:35 AM 19.4 °F - 14.0 °F 80% 30.32 in 5.0 mi Calm Calm - N/A Snow Light Snow
10:55 AM 19.4 °F - 15.8 °F 86% 30.31 in 5.0 mi Calm Calm - 0.01 in Rain Light Freezing Rain
11:15 AM 19.4 °F - 15.8 °F 86% 30.32 in 5.0 mi Calm Calm - N/A Rain Light Freezing Rain
11:35 AM 21.2 °F - 15.8 °F 80% 30.32 in 7.0 mi Calm Calm - N/A Rain Light Freezing Rain
11:55 AM 21.2 °F - 15.8 °F 80% 30.32 in 9.0 mi Calm Calm - N/A Rain Light Freezing Rain
12:15 PM 21.2 °F - 15.8 °F 80% 30.32 in 5.0 mi Calm Calm - N/A Rain Light Freezing Rain
12:35 PM 21.2 °F - 15.8 °F 80% 30.33 in 5.0 mi Calm Calm - N/A Rain Light Freezing Rain
12:55 PM 21.2 °F - 15.8 °F 80% 30.33 in 5.0 mi Calm Calm - 0.01 in Snow Light Snow
1:15 PM 21.2 °F - 15.8 °F 80% 30.32 in 4.0 mi Calm Calm - N/A Snow Light Snow
1:35 PM 23.0 °F - 15.8 °F 74% 30.32 in 7.0 mi Calm Calm - N/A Rain Light Freezing Rain
1:55 PM 23.0 °F - 15.8 °F 74% 30.31 in 9.0 mi Calm Calm - N/A   Overcast
2:15 PM 23.0 °F - 15.8 °F 74% 30.32 in 9.0 mi Calm Calm - N/A   Overcast
2:35 PM 23.0 °F - 15.8 °F 74% 30.32 in 9.0 mi Calm Calm - N/A   Overcast
2:55 PM 23.0 °F - 15.8 °F 74% 30.32 in 10.0 mi Calm Calm - N/A   Overcast
3:15 PM 23.0 °F - 15.8 °F 74% 30.32 in 10.0 mi Calm Calm - N/A   Overcast
3:35 PM 23.0 °F - 15.8 °F 74% 30.33 in 10.0 mi Calm Calm - N/A   Overcast
3:55 PM 21.2 °F - 15.8 °F 80% 30.34 in 9.0 mi Calm Calm - N/A   Overcast
4:15 PM 21.2 °F - 15.8 °F 80% 30.34 in 10.0 mi Calm Calm - N/A   Overcast
4:35 PM 21.2 °F - 15.8 °F 80% 30.34 in 10.0 mi Calm Calm - N/A   Overcast
4:55 PM 21.2 °F - 15.8 °F 80% 30.35 in 9.0 mi Calm Calm - N/A   Overcast
5:15 PM 21.2 °F - 15.8 °F 80% 30.34 in 9.0 mi Calm Calm - N/A Rain Light Freezing Rain
5:35 PM 21.2 °F - 15.8 °F 80% 30.36 in 9.0 mi Calm Calm - N/A   Overcast
5:55 PM 19.4 °F - 15.8 °F 86% 30.36 in 8.0 mi Calm Calm - N/A   Overcast
6:15 PM 19.4 °F - 15.8 °F 86% 30.35 in 9.0 mi Calm Calm - N/A Snow Light Snow
6:35 PM 19.4 °F - 15.8 °F 86% 30.34 in 10.0 mi Calm Calm - N/A   Overcast
6:55 PM 19.4 °F - 15.8 °F 86% 30.35 in 10.0 mi Calm Calm - N/A   Overcast
7:15 PM 19.4 °F - 15.8 °F 86% 30.36 in 10.0 mi Calm Calm - N/A   Overcast
7:35 PM 19.4 °F - 15.8 °F 86% 30.37 in 10.0 mi Calm Calm - N/A   Overcast
7:55 PM 19.4 °F - 15.8 °F 86% 30.36 in 10.0 mi Calm Calm - N/A   Overcast
8:15 PM 19.4 °F - 15.8 °F 86% 30.33 in 10.0 mi Calm Calm - N/A   Overcast
8:35 PM 19.4 °F - 15.8 °F 86% 30.32 in 10.0 mi Calm Calm - N/A   Overcast
8:55 PM 19.4 °F - 15.8 °F 86% 30.34 in 10.0 mi Calm Calm - N/A   Overcast
9:15 PM 19.4 °F - 15.8 °F 86% 30.35 in 10.0 mi Calm Calm - N/A   Overcast
9:35 PM 21.2 °F - 15.8 °F 80% 30.36 in 10.0 mi Calm Calm - N/A   Overcast
9:55 PM 21.2 °F - 15.8 °F 80% 30.36 in 10.0 mi Calm Calm - N/A   Overcast
10:15 PM 21.2 °F - 15.8 °F 80% 30.35 in 10.0 mi Calm Calm - N/A   Overcast
10:35 PM 21.2 °F - 15.8 °F 80% 30.34 in 10.0 mi Calm Calm - N/A   Overcast
10:55 PM 21.2 °F - 15.8 °F 80% 30.32 in 10.0 mi Calm Calm - N/A   Overcast
11:15 PM 21.2 °F - 15.8 °F 80% 30.32 in 10.0 mi Calm Calm - N/A   Overcast
11:35 PM 19.4 °F - 15.8 °F 86% 30.30 in 10.0 mi Calm Calm - N/A   Overcast
11:55 PM 21.2 °F - 15.8 °F 80% 30.30 in 10.0 mi Calm Calm - N/A   Overcast